Regional Weather Roundup
Issued by NWS

Home | Current Version | Previous Version | Text Only | Print | Product List | Glossary On
Versions: 1 2 3 4 5 6 7 8 9 10 11 12 13 14 15 16 17 18 19 20 21 22 23 24 25 26 27 28 29 30 31 32 33 34 35 36 37 38 39 40 41 42 43 44 45 46 47 48 49 50
761
ASUS44 KJAN 230410
RWRMS

MISSISSIPPI HOURLY WEATHER ROUNDUP
NATIONAL WEATHER SERVICE JACKSON MS
1100 PM CDT TUE APR 22 2014

NOTE: "FAIR: INDICATES FEW OR NO CLOUDS BELOW 12,000 FEET WITH NO
SIGNIFICANT WEATHER AND/OR OBSTRUCTIONS TO VISIBILITY.

MSZ001>002-007>008-010>013-018>021-025>028-034>036-230500-
NORTHWEST MISSISSIPPI

CITY           SKY/WX    TMP DP  RH WIND       PRES   REMARKS
CLARKSDALE       N/A     61  48  63 CALM      29.96F
CLEVELAND      FAIR      62  53  71 N5        29.94S
GREENWOOD      CLEAR     59  58  96 CALM      29.94S
GREENVILLE     CLEAR     62  50  64 N3        29.94S
GRENADA        FAIR      61  54  77 CALM      29.95S
OLIVE BRANCH   CLEAR     57  45  62 CALM      29.96S
OXFORD         FAIR      57  43  58 CALM      29.97S
TUNICA         CLEAR     55  50  82 CALM      29.96F
$$

MSZ003>006-009-014>017-022>024-029>033-037>039-230500-
NORTHEAST MISSISSIPPI

CITY           SKY/WX    TMP DP  RH WIND       PRES   REMARKS
BELMONT        FAIR      63  47  55 CALM      29.93S
COLUMBUS AFB   CLEAR     66  59  77 N8        29.92S
CORINTH        FAIR      55  48  76 W5        29.94S
GOLDN TRIANGLE PTCLDY    66  55  68 N8        29.94F
STARKVILLE     FAIR      64  59  82 CALM      29.93S
TUPELO         CLEAR     63  49  60 N6        29.94R
$$

MSZ040-058-230500-
CENTRAL MISSISSIPPI

CITY           SKY/WX    TMP DP  RH WIND       PRES   REMARKS
JACKSON INTL   PTCLDY    61  59  93 CALM      29.94S
JACKSON HAWKNS CLEAR     65  60  84 CALM      29.94F
MERIDIAN KEY   FOG       59  58  96 CALM      29.93S VSB 1/4
MERIDIAN NAS   FOG       61  59  93 SW3       29.92F VSB 1
RAYMOND        HAZE      59  55  88 CALM      29.95S VSB<1/4
VICKSBURG      CLEAR     64  61  90 CALM      29.94S
$$

MSZ059>079-230500-
SOUTH MISSISSIPPI

CITY           SKY/WX    TMP DP  RH WIND       PRES   REMARKS
BROOKHAVEN     FAIR      61  61 100 CALM      29.97S FOG
HATTIESBURG    CLEAR     61  60  97 CALM      29.94S FOG
MCCOMB         CLEAR     61  58  90 CALM      29.95S
NATCHEZ        CLEAR     63  57  82 CALM      29.96S
PINE BELT      CLEAR     59  55  88 CALM      29.94F
$$

MSZ080>082-230500-
COASTAL MISSISSIPPI

CITY           SKY/WX    TMP DP  RH WIND       PRES   REMARKS
BILOXI         CLEAR     68  65  89 VRB2      29.92S
PASCAGOULA     CLEAR     65  64  97 CALM      29.92S FOG
GULFPORT       PTCLDY    71  63  75 N7        29.92R
$$



USA.gov is the U.S. government's official web portal to all federal, state and local government web resources and services.